Location: Kitchener
(43.4500°N, 80.5000°W)
Time: 02:58:24
(UTC-05:00)

ISS - Visible Passes

Search period start: 21 November 2018 00:00
Search period end: 01 December 2018 00:00
Orbit: 401 x 409 km, 51.6° (Epoch: 21 November)

Date Brightness Start Highest point End Pass type
(mag) Time Alt. Az. Time Alt. Az. Time Alt. Az.
22 Nov -1.4 18:50:41 10° SSW 18:51:34 15° S 18:51:34 15° S visible
23 Nov -1.7 17:59:49 10° SSE 18:01:27 13° SE 18:01:56 13° ESE visible
23 Nov -0.6 19:34:16 10° WSW 19:34:38 13° WSW 19:34:38 13° WSW visible
24 Nov -3.2 18:42:14 10° SW 18:44:53 47° S 18:44:53 47° S visible
25 Nov -2.7 17:50:31 10° SSW 17:53:24 29° SE 17:55:04 19° E visible
25 Nov -1.0 19:26:41 10° W 19:27:45 18° W 19:27:45 18° W visible
26 Nov -3.8 18:34:21 10° WSW 18:37:35 66° NNW 18:37:50 63° N visible
27 Nov -3.8 17:42:11 10° SW 17:45:25 70° SE 17:47:51 16° ENE visible
27 Nov -1.1 19:19:19 10° WNW 19:20:31 18° WNW 19:20:31 18° WNW visible
28 Nov -2.8 18:26:46 10° W 18:29:49 35° NNW 18:30:28 32° N visible
29 Nov -3.4 17:34:20 10° WSW 17:37:32 55° NNW 17:40:23 13° NE visible
29 Nov -1.1 19:11:59 10° WNW 19:13:03 16° NW 19:13:03 16° NW visible
30 Nov -2.2 18:19:22 10° WNW 18:22:07 24° NNW 18:22:55 22° N visible
